F4LPU-13 Weather Reports


time (UTC)temp
C
wind
direction
speed
KPH
gust
KPH
rain 1hr
cm
rain 24hr
cm
rain mn
cm
humidity
%
barometer
mb
20260507172502 17 7 9.7 22.5 0.00 0.13 0.00 6 972.0
20260507163502 17 7 9.7 22.5 0.00 0.13 0.00 6 972.0
20260507154502 17 4 8.0 20.9 0.00 0.13 0.00 6 973.0
20260507145502 17 4 8.0 20.9 0.00 0.13 0.00 6 973.0
20260507140502 17 4 8.0 20.9 0.00 0.13 0.00 6 973.0
20260507131502 16 352 8.0 20.9 0.00 0.13 0.00 6 974.0
20260507122502 16 352 8.0 20.9 0.00 0.13 0.00 6 974.0
20260507113503 13 333 4.8 16.1 0.00 0.13 0.00 8 974.0
20260507104502 13 333 4.8 16.1 0.00 0.13 0.00 8 974.0
20260507095502 11 286 3.2 9.7 0.00 0.13 0.00 9 974.0
20260507090502 11 286 3.2 9.7 0.00 0.13 0.00 9 974.0
20260507081502 11 286 3.2 9.7 0.00 0.13 0.00 9 974.0
20260507072502 9 184 3.2 8.0 0.00 0.13 0.00 9 974.0
20260507063502 9 184 3.2 8.0 0.00 0.13 0.00 9 974.0
20260507054503 9 206 1.6 0.0 0.00 0.13 0.00 9 973.0
20260507045503 11 317 4.8 14.5 0.00 0.94 0.00 9 971.0
20260506195504 13 3 4.8 11.3 0.03 0.94 0.00 8 970.0
20260506195205 13 3 4.8 11.3 0.03 0.94 0.00 8 970.0
20260506190504 13 3 4.8 11.3 0.03 0.94 0.00 8 970.0
20260506181504 13 3 4.8 11.3 0.03 0.94 0.00 8 970.0